Tracking 29892 objects as of 21-Nov-2024
HD Live streaming from Space Station
objects crossing your sky now

COSMOS 2215

Track COSMOS 2215 now!
10-day predictions
COSMOS 2215 is classified as:


NORAD ID: 22186
Int'l Code: 1992-068E
Perigee: 1,416.0 km
Apogee: 1,436.4 km
Inclination: 82.6 °
Period: 114.2 minutes
Semi major axis: 7797 km
RCS: 1.0707 m2 (large)
Launch date: October 20, 1992
Source: Commonwealth of Independent States (former USSR) (CIS)
Launch site: PLESETSK MISSILE AND SPACE COMPLEX (PKMTR)
Your satellite tracking list
Your tracking list is empty




NASA's NSSDC Master Catalog

Two Line Element Set (TLE):
1 22186U 92068E   24325.56853348  .00000033  00000-0  12718-3 0  9990
2 22186  82.6038  16.7217 0013072  39.0910 321.1123 12.60938764476575
Source of the keplerian elements: AFSPC